CW1492 Weather Reports


Display with metric or nautical units.
time (UTC)temp
F
wind
direction
speed
MPH
gust
MPH
rain 1hr
in
rain 24hr
in
rain mn
in
humidity
%
barometer
mb
20260508043351 41 91 1.0 4.0 0.00 0.00 0.00 52 1010.2
20260508043321 37 305 0.0 0.0 0.00 0.04 0.00 80 1008.5
20260508041902 42 91 1.0 2.0 0.00 0.00 0.00 49 1010.3
20260508041829 38 305 0.0 0.0 0.00 0.05 0.04 80 1008.5
20260508040348 38 305 0.0 0.0 0.00 0.05 0.04 79 1008.5
20260508040336 42 91 3.0 4.0 0.00 0.00 0.00 48 1010.3
20260508034926 42 83 3.0 4.0 0.00 0.00 0.00 49 1010.2
20260508034827 38 305 0.0 0.0 0.00 0.05 0.04 77 1008.6
20260508033351 43 77 2.0 3.0 0.00 0.00 0.00 45 1010.3
20260508033344 39 305 0.0 0.0 0.00 0.05 0.04 76 1008.7
20260508031910 44 35 1.0 2.0 0.00 0.00 0.00 44 1010.3
20260508031850 39 305 0.0 0.0 0.00 0.06 0.04 77 1008.6
20260508030420 45 35 1.0 4.0 0.00 0.00 0.00 42 1010.2
20260508030329 39 305 0.0 1.0 0.00 0.06 0.04 77 1008.5
20260508024932 45 19 2.0 3.0 0.00 0.03 0.00 42 1010.2
20260508024833 40 305 1.0 1.0 0.00 0.06 0.04 77 1008.5
20260508024829 45 19 2.0 3.0 0.00 0.03 0.00 42 1010.2
20260508023424 46 349 2.0 5.0 0.00 0.03 0.00 41 1010.2
20260508023332 41 305 1.0 2.0 0.00 0.06 0.04 76 1008.6
20260508021851 41 288 0.0 1.0 0.00 0.08 0.04 73 1008.5
20260508021845 46 347 1.0 2.0 0.00 0.03 0.00 41 1010.1
20260508020448 47 299 0.0 2.0 0.00 0.03 0.00 37 1010.1
20260508020350 42 275 0.0 1.0 0.00 0.08 0.04 72 1008.5
20260508014915 48 339 0.0 2.0 0.00 0.03 0.00 38 1009.9
20260508014823 43 275 0.0 2.0 0.00 0.08 0.04 74 1008.4
20260508013417 48 300 0.0 1.0 0.00 0.03 0.00 36 1009.6
20260508013327 44 275 0.0 1.0 0.00 0.08 0.04 70 1008.1
20260508011911 49 267 0.0 1.0 0.00 0.03 0.00 34 1009.3
20260508011849 44 275 0.0 0.0 0.00 0.12 0.04 67 1007.7
20260508010330 45 275 0.0 0.0 0.00 0.12 0.04 64 1007.8
20260508010326 50 339 0.0 2.0 0.00 0.03 0.00 34 1009.3
20260508004922 50 251 0.0 2.0 0.00 0.07 0.00 31 1009.1
20260508004833 47 275 0.0 0.0 0.00 0.12 0.04 64 1007.6
20260508003338 49 275 0.0 1.0 0.00 0.12 0.04 63 1007.3
20260508003326 51 337 0.0 2.0 0.00 0.07 0.00 32 1008.9
20260508001856 51 278 1.0 9.0 0.00 0.07 0.00 30 1009.0
20260508001815 50 283 0.0 2.0 0.00 0.15 0.04 58 1007.3
20260508000405 52 289 1.0 6.0 0.00 0.07 0.00 31 1008.8
20260508000319 52 271 2.0 7.0 0.00 0.15 0.04 50 1007.1
20260507234826 53 276 1.0 7.0 0.00 0.16 0.00 29 1008.8
20260507234821 52 299 1.0 4.0 0.00 0.15 0.04 45 1007.0
20260507233345 53 295 3.0 5.0 0.00 0.15 0.04 45 1006.7
20260507233340 53 328 5.0 10.0 0.00 0.16 0.00 27 1008.4
20260507231840 54 301 5.0 18.0 0.00 0.16 0.00 26 1008.4
20260507231826 54 300 2.0 4.0 0.00 0.16 0.04 43 1006.7
20260507230432 55 281 5.0 13.0 0.00 0.16 0.00 26 1008.3
20260507230331 54 325 3.0 5.0 0.00 0.16 0.04 43 1006.7
20260507224908 56 251 4.0 16.0 0.00 0.18 0.00 26 1008.4
20260507224824 54 262 4.0 9.0 0.00 0.16 0.04 43 1006.7
20260507223332 56 208 7.0 15.0 0.00 0.18 0.00 26 1008.3
20260507223322 54 317 1.0 8.0 0.00 0.16 0.04 44 1006.7
20260507221911 56 276 4.0 11.0 0.00 0.18 0.00 32 1008.3
20260507221826 55 292 4.0 8.0 0.00 0.17 0.04 43 1006.6
20260507220345 56 238 6.0 14.0 0.00 0.18 0.00 26 1008.2
20260507220326 55 284 0.0 5.0 0.00 0.17 0.04 46 1006.7
20260507214935 56 324 5.0 11.0 0.00 0.20 0.00 27 1008.2
20260507214832 56 324 5.0 11.0 0.00 0.20 0.00 27 1008.2
20260507214829 55 313 2.0 5.0 0.00 0.17 0.04 43 1006.5
20260507213341 54 256 8.0 14.0 0.00 0.20 0.00 29 1008.3
20260507213325 56 283 2.0 11.0 0.00 0.17 0.04 43 1006.5
20260507211825 55 306 5.0 12.0 0.00 0.18 0.04 42 1006.4
20260507210327 54 317 6.0 12.0 0.00 0.20 0.00 31 1008.2
20260507210323 56 294 3.0 12.0 0.00 0.18 0.04 43 1006.3
20260507204916 56 304 5.0 12.0 0.00 0.18 0.04 41 1006.3
20260507204827 55 306 5.0 10.0 0.00 0.21 0.00 32 1008.2
20260507203425 57 358 5.0 15.0 0.00 0.21 0.00 28 1008.2
20260507203326 56 271 6.0 12.0 0.00 0.18 0.04 39 1006.3
20260507201912 57 276 4.0 6.0 0.00 0.24 0.04 41 1006.2
20260507200348 58 334 6.0 17.0 0.00 0.21 0.00 26 1008.1
20260507200313 56 311 4.0 9.0 0.00 0.24 0.04 41 1006.2
20260507194947 57 239 6.0 15.0 0.00 0.28 0.00 26 1008.1
20260507194922 56 299 4.0 10.0 0.00 0.24 0.04 42 1006.2
20260507194839 56 299 4.0 10.0 0.00 0.24 0.04 42 1006.2
20260507193439 57 264 6.0 14.0 0.00 0.28 0.00 28 1008.1
20260507193336 57 264 6.0 14.0 0.00 0.28 0.00 28 1008.1
20260507193314 56 306 3.0 9.0 0.00 0.24 0.04 44 1006.5
20260507191844 57 342 3.0 14.0 0.00 0.30 0.04 41 1006.5
20260507191837 56 253 7.0 15.0 0.00 0.28 0.00 25 1008.4
20260507190433 55 302 7.0 13.0 0.00 0.28 0.00 26 1008.5
20260507190351 55 302 7.0 13.0 0.00 0.28 0.00 26 1008.5
20260507190339 58 355 3.0 17.0 0.00 0.30 0.04 41 1006.6
20260507184851 55 297 11.0 16.0 0.00 0.35 0.00 28 1008.7
20260507184818 58 9 2.0 8.0 0.00 0.30 0.04 40 1006.6
20260507183422 55 201 5.0 12.0 0.00 0.35 0.00 26 1008.7
20260507183316 58 238 5.0 9.0 0.00 0.30 0.04 39 1006.7
20260507181857 56 282 7.0 13.0 0.00 0.35 0.00 27 1009.0
20260507181815 57 302 7.0 11.0 0.00 0.38 0.04 42 1007.1
20260507180346 56 268 7.0 15.0 0.00 0.35 0.00 28 1009.0
20260507180312 55 331 3.0 10.0 0.00 0.38 0.04 44 1007.3
20260507174852 56 212 5.0 13.0 0.00 0.43 0.00 29 1009.0
20260507174831 55 275 3.0 8.0 0.00 0.38 0.04 46 1007.1
20260507173415 53 306 4.0 9.0 0.00 0.38 0.04 46 1007.3
20260507173331 56 303 9.0 16.0 0.00 0.43 0.00 29 1009.0
20260507171845 56 230 8.0 20.0 0.00 0.43 0.00 30 1009.0
20260507171832 55 333 2.0 9.0 0.00 0.43 0.04 47 1007.3
20260507170419 54 261 2.0 6.0 0.00 0.43 0.04 49 1007.5
20260507170352 56 299 8.0 19.0 0.00 0.43 0.00 35 1009.0
20260507164837 55 215 8.0 16.0 0.00 0.46 0.00 30 1009.6
20260507164813 55 313 4.0 10.0 0.00 0.43 0.04 50 1007.7
20260507163340 55 330 3.0 12.0 0.00 0.46 0.00 40 1009.7
20260507163314 55 327 2.0 4.0 0.00 0.43 0.04 49 1008.1
20260507161906 54 167 5.0 14.0 0.00 0.46 0.00 33 1009.9
20260507161837 55 35 3.0 9.0 0.00 0.43 0.04 46 1008.1
20260507160358 54 9 4.0 11.0 0.00 0.43 0.04 47 1008.2
20260507160352 54 349 5.0 11.0 0.00 0.46 0.00 39 1009.9
20260507154850 53 284 8.0 15.0 0.00 0.46 0.00 35 1010.1
20260507154833 54 263 5.0 12.0 0.00 0.43 0.04 49 1008.4
20260507153357 52 293 10.0 17.0 0.00 0.46 0.00 34 1010.4
20260507153348 53 311 3.0 11.0 0.00 0.43 0.04 51 1008.8
20260507151844 53 346 4.0 9.0 0.00 0.43 0.04 52 1008.8
20260507151837 52 306 9.0 18.0 0.00 0.46 0.00 35 1010.4
20260507150341 52 334 9.0 18.0 0.00 0.46 0.00 36 1010.4
20260507150322 52 327 5.0 14.0 0.00 0.43 0.04 53 1008.7
20260507144841 52 299 10.0 22.0 0.00 0.46 0.00 36 1010.6
20260507143421 51 303 10.0 19.0 0.00 0.46 0.00 36 1010.6
20260507143405 52 305 5.0 11.0 0.00 0.43 0.04 53 1008.8
20260507141837 51 3 6.0 14.0 0.00 0.46 0.00 41 1010.5
20260507141820 52 298 2.0 6.0 0.00 0.43 0.04 54 1008.8
20260507140424 51 305 8.0 15.0 0.00 0.46 0.00 40 1010.6
20260507140335 51 317 3.0 10.0 0.00 0.43 0.04 56 1008.8
20260507134921 51 279 6.0 11.0 0.00 0.43 0.04 56 1008.7
20260507134849 50 314 8.0 17.0 0.00 0.46 0.00 39 1010.3
20260507133357 51 24 3.0 5.0 0.00 0.43 0.04 61 1008.5
20260507133350 50 276 5.0 15.0 0.00 0.46 0.00 43 1010.3
20260507131900 50 145 3.0 8.0 0.00 0.43 0.04 63 1008.5
20260507131854 50 163 3.0 11.0 0.00 0.46 0.00 52 1010.4
20260507130331 49 251 6.0 11.0 0.00 0.46 0.00 52 1010.4
20260507124844 49 6 7.0 11.0 0.00 0.46 0.00 56 1010.3
20260507124827 49 14 3.0 10.0 0.00 0.43 0.04 75 1008.6
20260507123413 48 345 1.0 8.0 0.00 0.43 0.04 79 1008.5
20260507123349 48 253 4.0 11.0 0.00 0.46 0.00 61 1010.1
20260507121827 48 257 3.0 7.0 0.00 0.46 0.00 69 1010.3
20260507121821 48 240 3.0 7.0 0.00 0.43 0.04 84 1008.3
20260507120415 47 278 1.0 3.0 0.00 0.46 0.00 70 1010.1
20260507120318 47 263 1.0 8.0 0.00 0.43 0.04 85 1008.1
20260507114904 47 319 2.0 8.0 0.00 0.43 0.04 89 1008.0
20260507114826 47 316 0.0 2.0 0.00 0.46 0.00 72 1009.8
20260507113335 47 332 3.0 9.0 0.00 0.46 0.00 73 1009.9
20260507113318 45 311 1.0 4.0 0.00 0.43 0.04 94 1008.0
20260507111919 47 255 4.0 10.0 0.00 0.46 0.00 74 1009.9
20260507111813 45 321 1.0 4.0 0.00 0.43 0.04 95 1008.0
20260507110341 44 313 1.0 2.0 0.00 0.43 0.04 97 1007.8
20260507110338 46 315 5.0 11.0 0.00 0.46 0.00 73 1009.7
20260507104844 44 15 1.0 3.0 0.00 0.43 0.04 97 1007.9
20260507104837 45 339 7.0 13.0 0.00 0.46 0.00 73 1009.3
20260507103343 43 294 0.0 0.0 0.00 0.43 0.04 97 1007.6
20260507103341 45 316 0.0 4.0 0.00 0.46 0.00 76 1009.1
20260507101848 45 298 1.0 5.0 0.00 0.46 0.00 74 1008.8
20260507101844 42 294 0.0 1.0 0.01 0.43 0.04 97 1007.3
20260507100413 45 334 0.0 3.0 0.00 0.46 0.00 74 1009.0
20260507100341 42 294 1.0 1.0 0.01 0.43 0.04 96 1007.6
20260507100331 45 334 0.0 3.0 0.00 0.46 0.00 74 1009.0
20260507094928 45 293 1.0 7.0 0.00 0.46 0.00 73 1009.1
20260507094820 43 294 0.0 1.0 0.01 0.43 0.04 96 1007.6
20260507093419 46 299 1.0 6.0 0.00 0.46 0.00 73 1009.4
20260507093316 43 319 1.0 2.0 0.00 0.42 0.03 95 1007.8
20260507091840 46 242 3.0 9.0 0.00 0.46 0.00 73 1009.1
20260507091835 44 319 0.0 1.0 0.00 0.42 0.03 96 1007.7
20260507090405 46 328 3.0 7.0 0.00 0.46 0.00 73 1009.5
20260507090342 45 321 0.0 1.0 0.00 0.42 0.03 96 1007.9
20260507084842 46 333 2.0 6.0 0.00 0.46 0.00 73 1009.7
20260507084816 45 331 0.0 1.0 0.00 0.42 0.03 96 1008.1
20260507083406 45 331 1.0 2.0 0.00 0.42 0.03 96 1008.2
20260507083351 46 25 3.0 9.0 0.00 0.46 0.00 73 1009.7
20260507081832 46 316 2.0 6.0 0.00 0.46 0.00 74 1009.1
20260507081826 45 5 0.0 1.0 0.00 0.42 0.03 96 1007.8
20260507080403 46 343 4.0 8.0 0.00 0.46 0.00 75 1009.1
20260507080348 45 5 0.0 0.0 0.01 0.42 0.03 95 1007.8
20260507074907 46 350 2.0 5.0 0.00 0.46 0.00 75 1009.0
20260507074825 46 5 0.0 1.0 0.01 0.42 0.03 96 1007.8
20260507073341 46 5 0.0 0.0 0.01 0.42 0.03 95 1007.6
20260507073336 46 308 1.0 8.0 0.00 0.46 0.00 75 1008.9
20260507071838 46 303 2.0 4.0 0.00 0.46 0.00 78 1009.1
20260507071836 46 5 0.0 2.0 0.01 0.42 0.03 95 1007.6
20260507070338 46 15 0.0 3.0 0.00 0.41 0.02 95 1007.5
20260507064840 46 118 1.0 3.0 0.00 0.46 0.00 78 1009.0
20260507064828 46 279 0.0 1.0 0.00 0.41 0.02 94 1007.6
20260507063412 46 324 1.0 2.0 0.00 0.46 0.00 78 1008.7
20260507063330 46 324 1.0 2.0 0.00 0.46 0.00 78 1008.7
20260507063325 46 294 1.0 3.0 0.00 0.41 0.02 94 1007.3
20260507061828 46 343 2.0 6.0 0.00 0.46 0.00 78 1008.7
20260507061820 46 328 1.0 3.0 0.01 0.41 0.02 94 1007.3
20260507060417 46 353 2.0 4.0 0.00 0.46 0.00 79 1008.9
20260507060342 46 296 1.0 2.0 0.01 0.41 0.02 94 1007.5
20260507060335 46 353 2.0 4.0 0.00 0.46 0.00 79 1008.9
20260507054851 46 307 1.0 4.0 0.00 0.46 0.00 80 1009.2
20260507054838 46 265 0.0 2.0 0.01 0.41 0.02 94 1007.7
20260507053337 46 357 2.0 7.0 0.00 0.46 0.00 79 1009.6
20260507053318 46 340 0.0 1.0 0.00 0.40 0.01 94 1007.8
20260507051836 46 346 2.0 6.0 0.00 0.46 0.00 83 1009.7
20260507051834 46 292 0.0 3.0 0.01 0.40 0.01 94 1008.0
20260507050346 47 315 1.0 4.0 0.01 0.40 0.01 94 1008.1
20260507050334 46 290 2.0 3.0 0.00 0.46 0.00 84 1009.8
20260507044840 46 297 1.0 5.0 0.00 0.46 0.00 84 1009.4
20260507044824 47 313 0.0 2.0 0.01 0.40 0.01 95 1007.7